Accueil
METAR-TAF:

METAR-TAF

Aéroports :

Aérodrome de Payerne

Payerne, Suisse

latitude: 46-49N, longitude: 006-57E, altitude: 490 m

Observation

Le bulletin a été fait il y a 27 minutes, à 18:50 UTC
Vent 2 kt de nord/nord-ouest
Température 26°C
Humidité 54%
Pression 1019 hPa
Visibilité 10 km ou plus
Nuages fragmentés à une hauteur de 6300 ft

METAR: LSMP 201850Z AUTO 33002KT 9999NDV BKN063 26/16 Q1019 RMK

Heure: 21:17 (19:17 UTC)


TAF: absent

Observations et prévisions météorologiques de plus de 4000 aéroports (messages METAR et TAF).

Les stations disponibles sont représentées par des disques jaunes et rouges sur la carte.

Passer la souris dessus pour voir le nom de la station.

Cliquer dessus pour voir les observations et prévisions météorologiques.

Pour changer de carte: cliquez sur les boutons verts avec une croix noire pour zoomer, sur le bouton vert avec un tiret pour effectuer un zoom arrière, ou sur les flèches vertes pour les cartes adjacentes.


METAR-TAF: